Regional Weather Roundup
Issued by NWS

Home | Current Version | Previous Version | Text Only | Print | Product List | Glossary Off
Versions: 1 2 3 4 5 6 7 8 9 10 11 12 13 14 15 16 17 18 19 20 21 22 23 24 25 26 27 28

000
ASUS45 KCYS 270710
RWRWY

WYOMING REGIONAL WEATHER ROUNDUP
NATIONAL WEATHER SERVICE CHEYENNE WY
1200 AM MST MON FEB 27 2017

NOTE:  "FAIR" INDICATES FEW OR NO CLOUDS BELOW 12,000 FEET
WITH NO SIGNIFICANT WEATHER AND/OR OBSTRUCTIONS TO VISIBILITY.

WYZ001-270800-
YELLOWSTONE NATIONAL PARK

CITY           SKY/WX    TMP DP  RH WIND       PRES   REMARKS
LK YELLOWSTONE   N/A     10   8  92 CALM      29.53F
W YELLOWSTONE  NOT AVBL

$$
WYZ002>013-054>058-071-098>099-270800-
NORTHERN WYOMING

CITY           SKY/WX    TMP DP  RH WIND       PRES   REMARKS
JACKSON        CLOUDY    16  16 100 SW13      29.59F WCI   2
CODY           FAIR      20   7  57 SE6       29.58F WCI  12
GREYBULL       FAIR      26  15  63 SE8       29.63F WCI  18
WORLAND        FAIR      21  14  74 SE9       29.63F WCI  11
SHERIDAN       FAIR      23  16  74 S12       29.60F WCI  12
BUFFALO        FAIR      17   4  56 W5        29.58F WCI  10
GILLETTE       FAIR      22  11  62 S10       29.62F WCI  11
HULETT         FAIR      25  12  58 S5        29.66F WCI  19
NEWCASTLE      FAIR      21  12  68 SE9       29.71F WCI  11

$$
WYZ014>020-022>026-101>103-270800-
CENTRAL WYOMING

CITY           SKY/WX    TMP DP  RH WIND       PRES   REMARKS
BIG PINEY      LGT SNOW   7   4  87 CALM      29.64F
PINEDALE       LGT SNOW  10   7  85 CALM      29.64F VSB 3/4
DUBOIS         CLOUDY    14   7  73 NW13      29.53F WCI   0
LANDER         FAIR      14   0  53 NW5       29.60F WCI   6
RIVERTON       FAIR      10   2  69 SW3       29.61F
CASPER         FAIR      21   8  57 SW17      29.64F WCI   7
DOUGLAS        FAIR      23   5  46 S9        29.68F WCI  13

$$
WYZ021-027>030-104>119-270800-
SOUTHERN WYOMING

CITY           SKY/WX    TMP DP  RH WIND       PRES   REMARKS
EVANSTON       FAIR      19  16  88 SE6       29.58F WCI  11
FORT BRIDGER   CLOUDY    19   3  49 CALM      29.64F
ROCK SPRINGS   CLOUDY    15   5  64 E3        29.63F
DIXON            N/A     28   7  42 S10       29.72F WCI  18
RAWLINS        FAIR      20   7  57 SW22G29   29.65F WCI   3
SARATOGA       FAIR      21   7  53 N6        29.67F WCI  14
LARAMIE        FAIR      18   2  49 S13       29.66F WCI   5
CHEYENNE       FAIR      13   5  70 W5        29.72F WCI   5
TORRINGTON     FAIR      13   5  70 E8        29.76F WCI   2
PINE BLUFFS    FAIR      21  12  68 N7        29.76F WCI  13

$$




USA.gov is the U.S. government's official web portal to all federal, state and local government web resources and services.